Provo, UT

6:21 PM MDT on June 24, 2017 (GMT -0600)
Provo Municipal

Weather History for KPVU - August, 2013

Change the Weather History Date:

Friday, August 2, 2013

  Actual Average Record
Temperature  
Mean Temperature 76 °F -  
Max Temperature 91 °F 88 °F 98 °F (2008)
Min Temperature 62 °F 59 °F 55 °F (1998)
Cooling Degree Days 12    
Growing Degree Days 26 (Base 50)    
Moisture  
Dew Point 49 °F    
Average Humidity 45    
Maximum Humidity 68    
Minimum Humidity 14    
Precipitation  
Precipitation 0.00 in - - ()
Sea Level Pressure  
Sea Level Pressure 30.00 in    
Wind  
Wind Speed 8 mph (SE)    
Max Wind Speed 17 mph    
Max Gust Speed 24 mph    
Visibility 11 miles    
Events      
Averages and records for this station are not official NWS values.
T = Trace of Precipitation, MM = Missing Value Source: NWS Daily Summary

Daily Weather History Graph

Daily Weather History Graph

Search for Another Location

Airport or City:

Trip Planner

Search our weather history database for the weather conditions in past years. The results will help you decide how hot, cold, wet, or windy it might be!

Date:

Astronomy

Aug. 02, 2013 Rise Set
Actual Time 6:25 AM MDT 8:39 PM MDT
Civil Twilight 5:55 AM MDT 9:09 PM MDT
Nautical Twilight 5:18 AM MDT 9:46 PM MDT
Astronomical Twilight 4:37 AM MDT 10:27 PM MDT
Moon 2:49 AM MDT (8/2) 5:40 PM MDT (8/2)
Length of Visible Light 15h 14m
Length of Day
14h 13m
Waning Crescent, 15% of the Moon is Illuminated
Aug 2
Waning Crescent
Aug 6
New
Aug 14
First Quarter
Aug 20
Full
Aug 28
Last Quarter

Hourly Weather History & Observations

Time (MDT) Temp. Dew Point Humidity Pressure Visibility Wind Dir Wind Speed Gust Speed Precip Events Conditions
12:15 AM 75.2 °F 53.6 °F 47% 29.94 in 10.0 mi SSE 17.3 mph 24.2 mph N/A   Clear
12:35 AM 75.2 °F 53.6 °F 47% 29.96 in 10.0 mi SSE 10.4 mph - N/A   Clear
12:55 AM 73.4 °F 53.6 °F 50% 29.96 in 10.0 mi SSE 15.0 mph - N/A   Clear
1:15 AM 75.2 °F 53.6 °F 47% 29.96 in 10.0 mi SE 12.7 mph 19.6 mph N/A   Clear
1:35 AM 73.4 °F 53.6 °F 50% 29.97 in 10.0 mi ESE 12.7 mph - N/A   Clear
1:55 AM 73.4 °F 53.6 °F 50% 29.98 in 10.0 mi ESE 9.2 mph - N/A   Clear
2:15 AM 71.6 °F 53.6 °F 53% 29.98 in 10.0 mi SE 12.7 mph - N/A   Clear
2:35 AM 69.8 °F 53.6 °F 56% 29.99 in 10.0 mi SE 5.8 mph - N/A   Clear
2:55 AM 69.8 °F 51.8 °F 53% 29.99 in 10.0 mi East 3.5 mph - N/A   Clear
3:15 AM 69.8 °F 50.0 °F 49% 29.99 in 10.0 mi Calm Calm - N/A   Clear
3:35 AM 64.4 °F 51.8 °F 64% 30.00 in 10.0 mi Calm Calm - N/A   Clear
3:55 AM 66.2 °F 53.6 °F 64% 30.00 in 10.0 mi Calm Calm - N/A   Clear
4:15 AM 66.2 °F 51.8 °F 60% 30.01 in 10.0 mi SSE 6.9 mph - N/A   Clear
4:35 AM 64.4 °F 51.8 °F 64% 30.01 in 10.0 mi South 9.2 mph - N/A   Clear
4:55 AM 64.4 °F 51.8 °F 64% 30.01 in 10.0 mi SSE 8.1 mph - N/A   Clear
5:15 AM 66.2 °F 53.6 °F 64% 30.01 in 10.0 mi East 8.1 mph - N/A   Clear
5:35 AM 64.4 °F 51.8 °F 64% 30.02 in 10.0 mi East 6.9 mph - N/A   Clear
5:55 AM 64.4 °F 51.8 °F 64% 30.02 in 10.0 mi ESE 6.9 mph - N/A   Clear
6:15 AM 64.4 °F 51.8 °F 64% 30.03 in 10.0 mi ESE 6.9 mph - N/A   Clear
6:35 AM 62.6 °F 51.8 °F 68% 30.03 in 10.0 mi East 4.6 mph - N/A   Clear
6:55 AM 62.6 °F 51.8 °F 68% 30.04 in 15.0 mi East 3.5 mph - N/A   Partly Cloudy
7:55 AM 68.0 °F 51.8 °F 56% 30.06 in 15.0 mi East 6.9 mph - N/A   Partly Cloudy
8:48 AM 71.6 °F 53.6 °F 53% 30.16 in 15.0 mi East 9.2 mph - N/A   Partly Cloudy
10:55 AM 78.8 °F 51.8 °F 39% 30.08 in 15.0 mi WSW 3.5 mph - N/A   Partly Cloudy
10:56 AM 77.0 °F 48.2 °F 36% 30.08 in 15.0 mi SSW 4.6 mph - N/A   Partly Cloudy
11:49 AM 82.4 °F 46.4 °F 28% 30.07 in 15.0 mi Calm Calm - N/A   Partly Cloudy
12:55 PM 87.8 °F 42.8 °F 21% 30.05 in 15.0 mi Variable 4.6 mph - N/A   Partly Cloudy
1:55 PM 89.6 °F 35.6 °F 15% 30.03 in 15.0 mi South 5.8 mph - N/A   Partly Cloudy
2:49 PM 89.6 °F 35.6 °F 15% 30.02 in 15.0 mi SW 9.2 mph - N/A   Partly Cloudy
3:47 PM 89.6 °F 35.6 °F 15% 29.99 in 15.0 mi West 8.1 mph - N/A   Partly Cloudy
4:47 PM 91.4 °F 37.4 °F 15% 29.97 in 15.0 mi WSW 8.1 mph - N/A   Scattered Clouds
5:59 PM 89.6 °F 33.8 °F 14% 29.96 in 15.0 mi West 4.6 mph - N/A   Scattered Clouds
6:48 PM 89.6 °F 35.6 °F 15% 29.95 in 15.0 mi SSW 4.6 mph - N/A   Scattered Clouds
7:54 PM 86.0 °F 46.4 °F 25% 29.94 in 15.0 mi SE 3.5 mph - N/A   Scattered Clouds
8:47 PM 80.6 °F 51.8 °F 37% 29.96 in 15.0 mi NW 3.5 mph - N/A   Partly Cloudy
9:15 PM 80.6 °F 48.2 °F 32% 29.96 in 2.0 mi NW 6.9 mph - N/A   Clear
9:35 PM 78.8 °F 48.2 °F 34% 29.97 in 6.0 mi NNW 6.9 mph - N/A   Clear
9:55 PM 75.2 °F 48.2 °F 38% 29.98 in 10.0 mi ENE 5.8 mph - N/A   Clear
10:15 PM 75.2 °F 51.8 °F 44% 29.99 in 10.0 mi Calm Calm - N/A   Clear
10:35 PM 73.4 °F 51.8 °F 47% 29.99 in 10.0 mi Calm Calm - N/A   Clear
10:55 PM 71.6 °F 51.8 °F 50% 29.99 in 10.0 mi East 4.6 mph - N/A   Clear
11:15 PM 71.6 °F 51.8 °F 50% 29.99 in 10.0 mi SE 5.8 mph - N/A   Clear
11:35 PM 71.6 °F 51.8 °F 50% 30.00 in 10.0 mi East 3.5 mph - N/A   Clear
11:55 PM 71.6 °F 50.0 °F 46% 30.00 in 10.0 mi SE 5.8 mph - N/A   Clear